Weather History for MMCU - September, 2013

Change the Weather History Date:

Sunday, September 1, 2013

  Actual Average Record
Temperature  
Mean Temperature 79 °F -  
Max Temperature 91 °F 84 °F 96 °F (2014)
Min Temperature 67 °F 57 °F 55 °F (2002)
Cooling Degree Days 14    
Growing Degree Days 29 (Base 50)    
Moisture  
Dew Point 58 °F    
Average Humidity 51    
Maximum Humidity 94    
Minimum Humidity 24    
Precipitation  
Precipitation 0.00 in - - ()
Sea Level Pressure  
Sea Level Pressure 29.88 in    
Wind  
Wind Speed 6 mph ()    
Max Wind Speed 16 mph    
Max Gust Speed -    
Visibility 8.5 miles    
Events      
Averages and records for this station are not official NWS values.
T = Trace of Precipitation, MM = Missing Value Source: Averaged Metar Reports

Daily Weather History Graph

Daily Weather History Graph

Search for Another Location

Airport or City:

Trip Planner

Search our weather history database for the weather conditions in past years. The results will help you decide how hot, cold, wet, or windy it might be!

Date:

Astronomy

Sep. 01, 2013 Rise Set
Actual Time 6:42 AM MDT 7:24 PM MDT
Civil Twilight 6:18 AM MDT 7:48 PM MDT
Nautical Twilight 5:49 AM MDT 8:17 PM MDT
Astronomical Twilight 5:20 AM MDT 8:45 PM MDT
Moon 3:17 AM MDT (9/1) 4:54 PM MDT (9/1)
Length of Visible Light 13h 30m
Length of Day
12h 42m
Waning Crescent, 13% of the Moon is Illuminated
Sep 1
Waning Crescent
Sep 5
New
Sep 12
First Quarter
Sep 19
Full
Sep 26
Last Quarter

Hourly Weather History & Observations

Time (MDT) Temp. Heat Index Dew Point Humidity Pressure Visibility Wind Dir Wind Speed Gust Speed Precip Events Conditions
4:40 AM 62.6 °F - 57.2 °F 82% 30.07 in 10.0 mi South 9.2 mph - N/A   Partly Cloudy
5:45 AM 62.6 °F - 57.2 °F 82% 29.78 in 10.0 mi South 6.9 mph - N/A   Partly Cloudy
5:49 AM 69 °F - 60 °F 65% 29.69 in 1 mi West 2.2 mph - -  
6:40 AM 60.8 °F - 59.0 °F 94% 30.09 in 10.0 mi SSE 9.2 mph - N/A   Scattered Clouds
7:40 AM 62.6 °F - 60.8 °F 94% 30.12 in 10.0 mi South 6.9 mph - N/A   Scattered Clouds
8:40 AM 76 °F - 62 °F 54% 29.85 in 6 mi East 2.2 mph - -   Partly Cloudy
8:40 AM 69.8 °F - 60.8 °F 73% 29.80 in 10.0 mi SSW 5.8 mph - N/A   Scattered Clouds
9:40 AM 78.8 °F - 57.2 °F 47% 30.12 in 10.0 mi NNW 3.5 mph - N/A   Partly Cloudy
10:40 AM 80.6 °F 81.1 °F 59.0 °F 48% 30.11 in 10.0 mi ENE 3.5 mph - N/A   Clear
11:40 AM 85 °F - 63 °F 37% 29.82 in 6 mi ENE 4.5 mph - -  
11:40 AM 84.2 °F 83.5 °F 57.2 °F 40% 29.75 in 10.0 mi North 11.5 mph - N/A   Partly Cloudy
12:40 PM 86.0 °F 84.9 °F 57.2 °F 37% 30.09 in 10.0 mi NNE 11.5 mph - N/A   Scattered Clouds
1:40 PM 87.8 °F 86.5 °F 57.2 °F 35% 30.07 in 10.0 mi NNW 3.5 mph - N/A   Scattered Clouds
2:40 PM 89.6 °F 87.7 °F 55.4 °F 31% 29.73 in 10.0 mi NNW 4.6 mph - N/A   Scattered Clouds
2:50 PM 90 °F - 58 °F 24% 29.62 in 6 mi ENE 8.9 mph - -   Partly Cloudy
3:40 PM 89.6 °F 87.7 °F 55.4 °F 31% 30.02 in 10.0 mi East 3.5 mph - N/A   Scattered Clouds
4:40 PM 82.4 °F 82.0 °F 57.2 °F 42% 30.01 in 10.0 mi East 16.1 mph - N/A   Scattered Clouds
5:40 PM 84.2 °F 83.5 °F 57.2 °F 40% 29.71 in 10.0 mi East 3.5 mph - N/A   Scattered Clouds
5:45 PM 87 °F - 56 °F 24% 29.54 in 6 mi East 11.2 mph - -   Scattered Clouds
6:40 PM 86.0 °F 84.9 °F 57.2 °F 37% 30.00 in 10.0 mi Calm Calm - N/A   Scattered Clouds
7:40 PM 78.8 °F - 57.2 °F 47% 30.01 in 10.0 mi Calm Calm - N/A   Partly Cloudy
8:40 PM 71.6 °F - 57.2 °F 60% 29.75 in 10.0 mi South 5.8 mph - N/A   Partly Cloudy
8:45 PM 75 °F - 56 °F 41% 29.56 in 1 mi WNW 2.2 mph - -